          29  17 20.64  -12 12.8   2.145  1.240    24.3 /  78   6.3   86  .58

          30  17 22.26  -12 07.6   2.128  1.220    24.7 /  78   6.1   99  .69

     Dec.  1  17 23.91  -12 02.3   2.110  1.199    25.2 /  78   5.9  113  .79

           2  17 25.58  -11 56.8   2.092  1.178    25.7 /  77   5.7  126  .88

           3  17 27.29  -11 51.2   2.073  1.158    26.2 /  77   5.5  139  .94

           4  17 29.04  -11 45.4   2.054  1.137    26.8 /  77   5.3  151  .98

           5  17 30.81  -11 39.3   2.035  1.116    27.3 /  77   5.1  160 1.00

           6  17 32.63  -11 33.2   2.015  1.094    27.9 /  77   4.9  163  .99

           7  17 34.47  -11 26.8   1.995  1.073    28.5 /  77   4.7  157  .95

           8  17 36.36  -11 20.2   1.975  1.051    29.1 /  77   4.5  147  .89

           9  17 38.29  -11 13.4   1.954  1.029    29.8 /  76   4.2  136  .82

          10  17 40.25  -11 06.4   1.932  1.007    30.5 /  76   4.0  125  .74

          11  17 42.26  -10 59.1   1.910  0.985    31.2 /  76   3.8  113  .65

          12  17 44.32  -10 51.7   1.888  0.963    31.9 /  76   3.5  103  .56

          13  17 46.42  -10 44.0   1.865  0.940    32.7 /  76   3.2   92  .46

          14  17 48.58  -10 36.1   1.842  0.917    33.5 /  76   3.0   81  .37

          15  17 50.79  -10 28.0   1.819  0.894    34.4 /  76   2.7   70  .28

          16  17 53.05  -10 19.7   1.794  0.871    35.3 /  76   2.4   60  .20

          17  17 55.37  -10 11.1   1.770  0.848    36.3 /  76   2.1   49  .13

          18  17 57.75  -10 02.3   1.745  0.824    37.3 /  76   1.8   39  .07

          19  18 00.20  -09 53.2   1.719  0.800    38.4 /  76   1.4   29  .03

          20  18 02.73  -09 44.0   1.693  0.776    39.5 /  76   1.1   21  .01

          21  18 05.32  -09 34.5   1.666  0.751    40.8 /  76   0.7   19  .00

          22  18 08.00  -09 24.8   1.639  0.726    42.1 /  77   0.4   24  .02

          23  18 10.76  -09 14.9   1.611  0.701    43.5 /  77   0.0   33  .07

          24  18 13.62  -09 04.9   1.583  0.676    45.0 /  77  -0.4   44  .14

          25  18 16.58  -08 54.8   1.553  0.650    46.6 /  77  -0.8   56  .22

          26  18 19.65  -08 44.7   1.524  0.624    48.3 /  78  -1.3   69  .32

          27  18 22.84  -08 34.5   1.493  0.597    50.2 /  79  -1.8   81  .43

          28  18 26.15  -08 24.5   1.462  0.571    52.3 /  79  -2.3   94  .54

          29  18 29.62  -08 14.6   1.430  0.543    54.6 /  80  -2.8  106  .65

          30  18 33.24  -08 05.2   1.397  0.516    57.1 /  81  -3.4  118  .76

          31  18 37.03  -07 56.4   1.363  0.488    59.9 /  82  -4.0  130  .85

2007 Jan.  1  18 41.02  -07 48.5   1.329  0.460    63.0 /  84  -4.6  141  .92

           2  18 45.24  -07 41.9   1.293  0.431    66.5 /  86  -5.3  151  .97

           3  18 49.70  -07 37.1   1.256  0.402    70.6 /  88  -6.1  158  .99

           4  18 54.44  -07 35.0   1.218  0.373    75.3 /  91  -6.9  160 1.00

           5  18 59.51  -07 36.6   1.179  0.344    81.1 /  95  -7.8  155  .98

           6  19 04.94  -07 43.5   1.138  0.314    88.2 / 100  -8.8  148  .94

           7  19 10.80  -07 58.0   1.096  0.285    97.5 / 105  -9.8  139  .88

           8  19 17.14  -08 23.5   1.052  0.257   109.8 / 112 -11.0  129  .81

           9  19 24.00  -09 04.7   1.008  0.230   126.9 / 120 -12.2  120  .73

          10  19 31.42  -10 08.5   0.963  0.206   150.2 / 129 -13.4  110  .64

          11  19 39.34  -11 43.2   0.920  0.186   179.4 / 138 -14.5  100  .55

          12  19 47.55  -13 56.4   0.880  0.174   209.4 / 146 -15.2   90  .46

          13  19 55.70  -16 49.5   0.849  0.171   230.2 / 152 -15.5   80  .36

          14  20 03.34  -20 12.4   0.828  0.178   235.0 / 156 -15.2   68  .27

          15  20 10.22  -23 47.1   0.818  0.193   225.0 / 159 -14.4   57  .19

          16  20 16.27  -27 16.7   0.818  0.215   206.5 / 160 -13.3   44  .12

          17  20 21.61  -30 30.9   0.826  0.240   185.0 / 161 -12.2   32  .06

          18  20 26.38  -33 25.7   0.839  0.268   164.1 / 161 -11.0   20  .02

          19  20 30.70  -36 00.9   0.856  0.296   145.0 / 161 -10.0   13  .00

          20  20 34.68  -38 17.9   0.875  0.326   128.3 / 161  -9.0   18  .01

          21  20 38.40  -40 18.7   0.896  0.355   114.0 / 160  -8.1   30  .04

          22  20 41.91  -42 05.6   0.917  0.385   101.8 / 159  -7.2   43  .10

          23  20 45.25  -43 40.5   0.940  0.414    91.3 / 158  -6.5   56  .18

          24  20 48.46  -45 05.1   0.962  0.442    82.5 / 157  -5.7   69  .28

          25  20 51.56  -46 21.0   0.985  0.471    74.9 / 156  -5.1   82  .39

          26  20 54.57  -47 29.2   1.008  0.499    68.4 / 155  -4.4   95  .50

          27  20 57.51  -48 31.0   1.030  0.527    62.8 / 154  -3.8  108  .62

          28  21 00.38  -49 27.1   1.052  0.554    58.0 / 152  -3.3  119  .72

          29  21 03.19  -50 18.4   1.074  0.581    53.9 / 151  -2.8  130  .81

          30  21 05.96  -51 05.4   1.096  0.608    50.2 / 150  -2.3  139  .89

          31  21 08.68  -51 48.7   1.117  0.634    47.1 / 149  -1.8  146  .95

     Feb.  1  21 11.36  -52 28.7   1.138  0.660    44.3 / 147  -1.4  149  .98

NAKANO

         **** Don't distribute anyone except personal use only ****

                (C) Copyright 2006 OAA/ComputingSection

write mail from CFAD0::NAKANO on 2006-11-17 02:06:35(JST).





    C/2006 P1 (McNaught)

Epoch 2007 Jan. 20.0 TT = JDT 2454120.5  

T 2007 Jan. 12.79759 TT                                 Nakano

q   0.1707271            (2000.0)            P               Q

z  -0.0001100      Peri.  155.97601     +0.12689619     -0.17390349

 +/-0.0000287      Node   267.41483     +0.67529564     +0.73627123

e   1.0000188      Incl.   77.83572     +0.72654880     -0.65395891

From 180 observations 2006 Aug. 7-Oct. 29, weighting mean residual 0".37.

   (1/a)org.= +0.000018, (1/a)fut.= +0.000478 (+/-0.000029), Q= 5.



NAKANO

         **** Don't distribute anyone except personal use only ****

                (C) Copyright 2006 OAA/ComputingSection

write mail from CFAD0::NAKANO on 2006-11-04 04:16:29(JST).





◎C/2006 P1の軌道と予報位置です



  上尾の門田健一氏から,西の空低空に位置するこの彗星の2006年10月15日の観測

が報告されました.氏のCCD全光度は13.6等でした.彗星は,このまま順調に増光

すると,2007年1月中旬に0等級まで明るくなるでしょう.ただし,11月中旬以後

は,北半球から観測できなくなります.



    C/2006 P1 (McNaught)

Epoch 2007 Jan. 20.0 TT = JDT 2454120.5  

T 2007 Jan. 12.80282 TT                                 Nakano

q   0.1707236            (2000.0)            P               Q

z  -0.0000200      Peri.  155.97793     +0.12684549     -0.17382669

 +/-0.0000535      Node   267.41529     +0.67531965     +0.73625100

e   1.0000034      Incl.   77.84114     +0.72653533     -0.65400210

From 161 observations 2006 Aug. 7-Oct. 15, mean residual 0".37.

   (1/a)org.= +0.000108, (1/a)fut.= +0.000568 (+/-0.000054), Q= 5.



2006/        α  (2000) δ      △      r      Elong. Phase    m1   天文薄明終了時

 18h JST    h  m       。  ,        AU      AU      。      。      等     h。    A。 

Oct. 20   16 34.94  -14 14.9    2.568   1.961   43.0   20.3   13.0   +13.9   60.8

     21   16 35.71  -14 12.9    2.563   1.945   42.3   20.1   12.9   +13.5   61.2

     22   16 36.50  -14 10.8    2.558   1.928   41.5   20.0   12.9   +13.2   61.6

     23   16 37.31  -14 08.8    2.552   1.911   40.7   19.8   12.8   +12.9   61.9

     24   16 38.14  -14 06.7    2.546   1.894   39.9   19.7   12.8   +12.5   62.3

     25   16 38.98  -14 04.6    2.541   1.878   39.2   19.5   12.8   +12.2   62.6

     26   16 39.85  -14 02.4    2.534   1.861   38.4   19.4   12.7   +11.8   63.0

     27   16 40.73  -14 00.3    2.528   1.844   37.6   19.2   12.7   +11.5   63.4

     28   16 41.64  -13 58.1    2.521   1.826   36.9   19.1   12.6   +11.1   63.7

     29   16 42.56  -13 55.8    2.514   1.809   36.1   18.9   12.6   +10.8   64.1

     30   16 43.50  -13 53.6    2.507   1.792   35.4   18.7   12.5   +10.4   64.5

     31   16 44.46  -13 51.2    2.499   1.775   34.7   18.6   12.5   +10.1   64.8

Nov.  1   16 45.44  -13 48.9    2.491   1.757   33.9   18.4   12.4    +9.7   65.2

      2   16 46.43  -13 46.5    2.483   1.740   33.2   18.2   12.4    +9.4   65.

      3   16 47.45  -13 44.0    2.474   1.722   32.5   18.0   12.3    +9.0   65.9

      4   16 48.48  -13 41.5    2.465   1.705   31.8   17.9   12.3    +8.7   66.3

      5   16 49.54  -13 38.9    2.456   1.687   31.1   17.7   12.2    +8.3   66.6

      6   16 50.61  -13 36.3    2.447   1.669   30.4   17.5   12.2    +7.9   67.0

      7   16 51.70  -13 33.6    2.437   1.651   29.7   17.3   12.1    +7.6   67.3

      8   16 52.82  -13 30.8    2.427   1.633   29.1   17.1   12.1    +7.2   67.7

      9   16 53.95  -13 28.0    2.416   1.615   28.4   17.0   12.0    +6.8   68.1

     10   16 55.10  -13 25.1    2.406   1.597   27.7   16.8   11.9    +6.5   68.4

     11   16 56.28  -13 22.1    2.395   1.579   27.1   16.6   11.9    +6.1   68.8

     12   16 57.47  -13 19.0    2.383   1.560   26.4   16.4   11.8    +5.7   69.2

     13   16 58.68  -13 15.9    2.372   1.542   25.8   16.2   11.8    +5.3   69.5

     14   16 59.92  -13 12.6    2.360   1.523   25.2   16.0   11.7    +5.0   69.9

     15   17 01.18  -13 09.3    2.347   1.505   24.5   15.8   11.6    +4.6   70.3

     16   17 02.46  -13 05.9    2.335   1.486   23.9   15.7   11.6    +4.2   70.6

     17   17 03.76  -13 02.4    2.322   1.467   23.3   15.5   11.5    +3.8   71.0

     18   17 05.08  -12 58.8    2.308   1.448   22.8   15.3   11.4    +3.4   71.4

     19   17 06.43  -12 55.0    2.295   1.429   22.2   15.1   11.4    +3.1   71.8

     20   17 07.80  -12 51.2    2.281   1.410   21.6   15.0   11.3    +2.7   72.1

     21   17 09.19  -12 47.2    2.267   1.391   21.1   14.8   11.2    +2.3   72.5

     22   17 10.61  -12 43.2    2.252   1.372   20.6   14.6   11.1    +1.9   72.9

     23   17 12.05  -12 39.0    2.237   1.352   20.0   14.5   11.1    +1.5   73.3

     24   17 13.51  -12 34.6    2.221   1.332   19.5   14.3   11.0    +1.1   73.7

